Voltar ao catálogo

STARLINK-31967

AtivoComunicaçõesVLEO
NORAD 60021·PAYLOAD·🇺🇸 United States

Lançado Jun 8, 2024 de Cape Canaveral Space Force Station

Loading…

Próximas Passagens (próximas 24 horas)

TLE

AtualizadoSource: CelesTrak SupGP

Época: Sep 15, 2026, 03:29 UTC

1 60021C 24111F   26258.14562500 -.00034221  00000+0 -10109-2 0  2588
2 60021  53.1573 271.0895 0001205  91.1514 279.4339 15.34413396    13

Acompanhe STARLINK-31967 em tempo real com AllMySat

Download on the App Store